Total_Precipitation_Accumulation
0.00 0.00 0.00 0.00 0.00 0.00 0.00 0.01 0.02 0.01 0.00 0.00 0.00 0.00 0.00 0.00 0.00 0.00 0.00 0.00 0.00 0.01 0.02 0.05 0.03 0.04 0.05 0.07 0.08 0.08 0.10 0.10 0.11 0.14 0.15 0.14 0.06 0.05
0.00 0.00 0.00 0.00 0.00 0.00 0.00 0.00 0.01 0.01 0.01 0.00 0.00 0.00 0.00 0.00 0.00 0.00 0.00 0.00 0.00 0.02 0.05 0.04 0.05 0.06 0.08 0.07 0.07 0.08 0.09 0.10 0.11 0.16 0.19 0.25 0.14 0.06
0.00 0.00 0.00 0.00 0.00 0.00 0.00 0.00 0.00 0.01 0.02 0.00 0.00 0.00 0.01 0.01 0.01 0.01 0.01 0.01 0.00 0.02 0.08 0.11 0.12 0.11 0.10 0.10 0.13 0.14 0.16 0.19 0.27 0.38 0.47 0.51 0.28 0.05
0.00 0.00 0.00 0.00 0.00 0.00 0.00 0.00 0.01 0.02 0.04 0.03 0.01 0.02 0.03 0.03 0.03 0.04 0.03 0.03 0.03 0.06 0.12 0.29 0.40 0.24 0.19 0.19 0.20 0.23 0.27 0.29 0.37 0.45 0.59 0.64 0.23 0.08
0.00 0.00 0.00 0.01 0.01 0.02 0.03 0.04 0.05 0.07 0.09 0.10 0.06 0.05 0.09 0.11 0.13 0.14 0.13 0.11 0.08 0.13 0.16 0.24 0.52 0.50 0.40 0.40 0.42 0.47 0.45 0.51 0.62 0.71 0.60 0.46 0.18 0.12
0.03 0.04 0.05 0.06 0.07 0.09 0.12 0.13 0.14 0.16 0.18 0.19 0.18 0.18 0.17 0.17 0.18 0.18 0.16 0.13 0.11 0.11 0.21 0.37 0.66 0.71 0.78 0.53 0.43 0.41 0.40 0.53 0.69 0.72 0.60 0.47 0.27 0.10
0.08 0.10 0.12 0.16 0.20 0.18 0.16 0.14 0.14 0.16 0.18 0.21 0.21 0.18 0.18 0.17 0.19 0.19 0.25 0.28 0.31 0.31 0.33 0.50 0.46 0.48 0.59 0.61 0.39 0.30 0.29 0.46 0.55 0.42 0.39 0.38 0.23 0.07
0.12 0.13 0.15 0.23 0.21 0.22 0.19 0.18 0.19 0.21 0.23 0.24 0.23 0.24 0.18 0.17 0.20 0.30 0.34 0.37 0.43 0.37 0.39 0.54 0.47 0.47 0.40 0.33 0.37 0.39 0.53 0.45 0.37 0.32 0.26 0.18 0.12 0.05
0.06 0.12 0.18 0.22 0.23 0.19 0.22 0.24 0.24 0.28 0.29 0.27 0.28 0.27 0.29 0.31 0.34 0.39 0.44 0.45 0.52 0.51 0.64 0.84 0.80 0.70 0.62 0.49 0.40 0.28 0.24 0.35 0.29 0.18 0.15 0.16 0.09 0.03
0.14 0.16 0.21 0.21 0.21 0.22 0.22 0.25 0.26 0.28 0.28 0.25 0.28 0.32 0.34 0.35 0.38 0.44 0.48 0.59 0.64 0.66 0.65 0.72 0.73 0.74 0.65 0.59 0.55 0.33 0.26 0.15 0.10 0.13 0.11 0.04 0.02 0.00
0.27 0.31 0.32 0.28 0.29 0.28 0.21 0.21 0.21 0.24 0.33 0.36 0.36 0.41 0.46 0.46 0.44 0.42 0.42 0.49 0.55 0.48 0.46 0.37 0.58 0.72 0.84 0.61 0.33 0.33 0.22 0.11 0.06 0.09 0.05 0.01 0.00 0.00
0.31 0.33 0.39 0.36 0.41 0.35 0.23 0.21 0.22 0.23 0.23 0.26 0.27 0.28 0.27 0.28 0.33 0.31 0.32 0.40 0.41 0.41 0.36 0.37 0.47 0.42 0.59 0.64 0.40 0.23 0.10 0.05 0.03 0.03 0.01 0.01 0.00 0.00
0.25 0.25 0.29 0.34 0.33 0.32 0.31 0.31 0.36 0.38 0.34 0.30 0.25 0.21 0.18 0.18 0.21 0.22 0.24 0.31 0.41 0.38 0.30 0.32 0.36 0.27 0.13 0.22 0.31 0.31 0.12 0.05 0.02 0.02 0.01 0.00 0.00 0.00
0.26 0.27 0.33 0.38 0.34 0.31 0.24 0.22 0.22 0.21 0.16 0.14 0.12 0.09 0.10 0.14 0.16 0.19 0.24 0.30 0.40 0.37 0.41 0.34 0.31 0.13 0.09 0.17 0.19 0.28 0.20 0.10 0.04 0.01 0.00 0.00 0.01 0.00
0.28 0.30 0.32 0.26 0.20 0.15 0.14 0.17 0.15 0.10 0.09 0.10 0.08 0.09 0.09 0.10 0.13 0.14 0.19 0.25 0.27 0.31 0.37 0.31 0.19 0.22 0.17 0.12 0.11 0.18 0.19 0.18 0.06 0.01 0.01 0.00 0.00 0.00
0.24 0.22 0.20 0.18 0.15 0.14 0.18 0.15 0.08 0.10 0.12 0.11 0.11 0.10 0.11 0.13 0.14 0.14 0.14 0.16 0.16 0.21 0.27 0.31 0.32 0.28 0.23 0.18 0.18 0.23 0.15 0.10 0.06 0.02 0.01 0.01 0.00 0.00
0.25 0.15 0.12 0.11 0.12 0.14 0.19 0.19 0.15 0.17 0.17 0.14 0.14 0.13 0.14 0.13 0.10 0.09 0.10 0.12 0.14 0.17 0.23 0.33 0.38 0.33 0.27 0.22 0.21 0.15 0.09 0.05 0.05 0.02 0.00 0.00 0.00 0.00
0.28 0.16 0.13 0.12 0.15 0.18 0.21 0.24 0.24 0.21 0.17 0.17 0.15 0.13 0.12 0.10 0.09 0.11 0.11 0.10 0.10 0.14 0.16 0.26 0.29 0.23 0.17 0.18 0.14 0.13 0.11 0.08 0.08 0.03 0.00 0.00 0.00 0.00
0.21 0.20 0.18 0.16 0.16 0.19 0.22 0.24 0.23 0.20 0.17 0.16 0.14 0.13 0.12 0.12 0.12 0.12 0.07 0.05 0.08 0.10 0.14 0.18 0.24 0.19 0.12 0.10 0.16 0.14 0.08 0.09 0.06 0.05 0.02 0.00 0.00 0.00
0.23 0.22 0.22 0.22 0.21 0.21 0.23 0.24 0.23 0.21 0.17 0.15 0.13 0.12 0.11 0.10 0.10 0.10 0.06 0.05 0.05 0.07 0.09 0.12 0.14 0.15 0.14 0.11 0.11 0.18 0.13 0.06 0.04 0.03 0.02 0.00 0.00 0.00
0.34 0.36 0.33 0.30 0.26 0.25 0.27 0.27 0.24 0.22 0.17 0.14 0.13 0.11 0.11 0.10 0.10 0.09 0.05 0.05 0.05 0.06 0.08 0.12 0.15 0.12 0.12 0.09 0.06 0.11 0.12 0.08 0.03 0.01 0.00 0.00 0.00 0.00
0.27 0.26 0.25 0.26 0.24 0.24 0.28 0.28 0.26 0.21 0.16 0.12 0.11 0.12 0.11 0.10 0.09 0.08 0.05 0.04 0.05 0.06 0.07 0.08 0.07 0.07 0.06 0.04 0.06 0.07 0.09 0.07 0.03 0.01 0.00 0.00 0.00 0.00
0.23 0.22 0.22 0.24 0.23 0.25 0.27 0.28 0.24 0.18 0.13 0.11 0.11 0.10 0.08 0.07 0.07 0.07 0.05 0.03 0.04 0.06 0.06 0.05 0.05 0.05 0.06 0.07 0.06 0.07 0.06 0.05 0.04 0.02 0.00 0.00 0.00 0.00